Tracking 33180 objects as of 11-Feb-2026
HD Live streaming from Space Station
objects crossing your sky now

STARLINK-34744

Track STARLINK-34744 now!
10-day predictions
STARLINK-34744 is classified as:


NORAD ID: 64952
Int'l Code: 2025-158W
Perigee: 555.3 km
Apogee: 558.0 km
Inclination: 97.6 °
Period: 95.6 minutes
Semi major axis: 6927 km
RCS: Unknown
Launch date: July 26, 2025
Source: United States (US)
Launch site: AIR FORCE WESTERN TEST RANGE (AFWTR)
Your satellite tracking list
Your tracking list is empty




NASA's NSSDC Master Catalog

Two Line Element Set (TLE):
1 64952U 25158W   26041.58925782  .00005708  00000-0  39936-3 0  9999
2 64952  97.6020 267.3015 0001946  79.5757 280.5689 15.05660230 31275
Source of the keplerian elements: AFSPC